Regional Weather Roundup
Issued by NWS Memphis, TN

Home | Current Version | Previous Version | Text Only | Print | Product List | Glossary On
Versions: 1 2 3 4 5 6 7 8 9 10 11 12 13 14 15 16 17 18 19 20 21 22 23 24 25 26 27 28 29 30 31 32 33 34 35 36 37 38 39 40 41 42 43 44 45 46 47 48 49 50
000
ASUS44 KMEG 192010
RWRMEG
MEMPHIS CWA HOURLY WEATHER ROUNDUP
NATIONAL WEATHER SERVICE MEMPHIS TN
300 PM CDT THU OCT 19 2017

...WEST TENNESSEE...

CITY           SKY/WX    TMP DP  RH WIND       PRES   REMARKS
MEMPHIS INTL   FAIR      76  50  40 CALM      30.20F
NWS MEMPHIS      N/A     77 N/A N/A MISG        N/A
JACKSON        FAIR      76  49  38 SE6       30.22F
COVINGTON      SUNNY     77  50  38 S7        30.20F
SOMERVILLE     SUNNY     75  50  41 CALM      30.20F
BOLIVAR        SUNNY     75  52  43 VRB5      30.21F
LEXINGTON      SUNNY     73  46  38 CALM      30.22F
SELMER         SUNNY     75  48  38 VRB3      30.22F
SAVANNAH       SUNNY     75  46  35 CALM      30.22F
UNION CITY     SUNNY     77  48  36 VRB7      30.19F
PARIS          SUNNY     75  48  38 VRB6      30.21F
HUNTINGDON     SUNNY     75  50  41 VRB5      30.21F


...EASTERN ARKANSAS...

CITY           SKY/WX    TMP DP  RH WIND       PRES   REMARKS
JONESBORO      FAIR      79  53  40 VRB3      30.18F
WEST MEMPHIS   FAIR      75  49  39 SE5       30.19F
BATESVILLE     FAIR      79  52  38 S6        30.17F
NEWPORT        FAIR      78  52  40 S9        30.18F
WALNUT RIDGE   FAIR      79  51  37 SE10      30.17F
BLYTHEVILLE    FAIR      77  52  41 S7        30.20F
SEARCY         FAIR      78  55  44 SE5       30.18F
STUTTGART      FAIR      79  52  38 E7        30.18F
PINE BLUFF     FAIR      79  50  36 E6        30.17F
MONTICELLO     FAIR      77  53  43 VRB3      30.18F


...NORTH MISSISSIPPI...

CITY           SKY/WX    TMP DP  RH WIND       PRES   REMARKS
TUPELO         FAIR      76  47  35 CALM      30.21F
OXFORD         FAIR      75  50  41 NE3       30.22F
BATESVILLE     FAIR      76  50  40 CALM      30.21F
OLIVE BRANCH   PTSUNNY  N/A N/A N/A CALM      30.20F
TUNICA           N/A    N/A N/A N/A SE6       30.21F
CLARKSDALE       N/A     77  52  41 NE5       30.19F
CORINTH        FAIR      75  48  38 CALM      30.22F
GREENWOOD      FAIR      80  50  34 E3        30.18F
COLUMBUS       FAIR      77  55  46 CALM      30.20F
STARKVILLE     FAIR      77  50  38 CALM      30.22S
GOLDEN TRIANGL FAIR      76  50  40 CALM      30.21F


...SOUTHEAST MISSOURI...

CITY           SKY/WX    TMP DP  RH WIND       PRES   REMARKS
KENNETT        FAIR      79  50  36 S5        30.17F
MALDEN         FAIR      79  46  31 S9        30.19F
WEST PLAINS    FAIR      79  44  28 S6        30.18F
POPLAR BLUFF   FAIR      78  50  37 S5        30.17F
CAPE GIRARDEAU FAIR      77  49  37 SW8       30.18F


...NORTHWEST ALABAMA...

CITY           SKY/WX    TMP DP  RH WIND       PRES   REMARKS
MUSCLE SHOALS  FAIR      76  47  35 E5        30.24F


...MIDDLE TENNESSEE...

CITY           SKY/WX    TMP DP  RH WIND       PRES   REMARKS
NASHVILLE      FAIR      76  45  33 CALM      30.25F
CLARKSVILLE    FAIR      74  47  38 SE7       30.23F
COLUMBIA       SUNNY     75  43  31 CALM      30.22F


...WESTERN KENTUCKY...

CITY           SKY/WX    TMP DP  RH WIND       PRES   REMARKS
PADUCAH        FAIR      78  49  35 SW10      30.19F
FORT CAMPBELL  FAIR      74  48  39 S3        30.22F


...CENTRAL ARKANSAS...

CITY           SKY/WX    TMP DP  RH WIND       PRES   REMARKS
LITTLE ROCK    PTSUNNY   78  53  41 NE6       30.17F


SKY/WX REPORTED AS FAIR MEANS FEW OR NO CLOUDS BELOW
12 THOUSAND FEET.





USA.gov is the U.S. government's official web portal to all federal, state and local government web resources and services.